Location: *
(32.8140°S, 174.6161°E)
Time: 12:37:25
(UTC+00:00)

ALOS - Pass Details

Date: 10 December 2019
Orbit: 683 x 685 km, 97.8° (Epoch: 26 January)

Event Time Altitude Azimuth Distance (km) Brightness Sun altitude
Rises 16:29:38 0° 29° (NNE) 3,038 5.6 -7.5°
Reaches altitude 10° 16:31:56 10° 36° (NE) 2,131 4.9 -7.1°
Maximum altitude 16:36:20 43° 106° (ESE) 974 3.8 -6.3°
Drops below altitude 10° 16:40:48 10° 177° (S) 2,157 5.4 -5.5°
Sets 16:43:08 0° 183° (S) 3,080 6.1 -5.1°
